CTN320 LDZA-LDDU

Flight info

Callsign CTN320
Flight time 0h 54m
Altitude 29000
Route NIVES DCT UNIPA DCT SIPAL
Aircraft A320/M-SDE3FGHIRWY/LB1

Departure

Time 2026-05-06 09:48
Airport Zagreb Franjo Tuđman International Airport (LDZA)

Arrival

Time 2026-05-06 10:42
Airport Dubrovnik Ruđer Bošković Airport (LDDU)
Time Latitude Longitude Altitude Speed Heading
2026-05-06 09:29 45.74189 16.07824 358 ft 0 kts 134°
2026-05-06 09:39 45.74195 16.07815 365 ft 3 kts 134°
2026-05-06 09:39 45.74210 16.07793 362 ft 3 kts 134°
2026-05-06 09:39 45.74229 16.07766 362 ft 3 kts 130°
2026-05-06 09:39 45.74229 16.07742 360 ft 3 kts 40°
2026-05-06 09:40 45.74226 16.07738 359 ft 0 kts 28°
2026-05-06 09:45 45.74229 16.07741 359 ft 5 kts 28°
2026-05-06 09:45 45.74378 16.07898 363 ft 25 kts 36°
2026-05-06 09:46 45.74466 16.07819 354 ft 24 kts 280°
2026-05-06 09:46 45.74594 16.07723 355 ft 30 kts 43°
2026-05-06 09:46 45.74755 16.07969 359 ft 37 kts 44°
2026-05-06 09:46 45.74877 16.08056 359 ft 8 kts 318°
2026-05-06 09:47 45.74926 16.07968 365 ft 19 kts 311°
2026-05-06 09:47 45.74920 16.07842 362 ft 8 kts 218°
2026-05-06 09:47 45.74821 16.07687 360 ft 61 kts 229°
2026-05-06 09:47 45.74311 16.06897 365 ft 149 kts 226°
2026-05-06 09:48 45.73469 16.05578 536 ft 200 kts 229°
2026-05-06 09:48 45.72501 16.04024 1354 ft 220 kts 228°
2026-05-06 09:48 45.71454 16.02356 2010 ft 220 kts 228°
2026-05-06 09:48 45.70532 16.00886 2618 ft 181 kts 228°
2026-05-06 09:49 45.69608 15.99809 3349 ft 168 kts 198°
2026-05-06 09:49 45.68471 15.99792 4049 ft 167 kts 156°
2026-05-06 09:49 45.67508 16.00718 4609 ft 168 kts 137°
2026-05-06 09:49 45.66681 16.01911 5187 ft 170 kts 133°
2026-05-06 09:50 45.65887 16.03154 5726 ft 171 kts 132°
2026-05-06 09:50 45.65088 16.04426 6301 ft 173 kts 132°
2026-05-06 09:50 45.64284 16.05711 6831 ft 175 kts 132°
2026-05-06 09:50 45.63472 16.07007 7372 ft 176 kts 132°
2026-05-06 09:51 45.62654 16.08313 7879 ft 177 kts 132°
2026-05-06 09:51 45.61827 16.09631 8386 ft 179 kts 132°
2026-05-06 09:51 45.60994 16.10959 8882 ft 180 kts 132°
2026-05-06 09:51 45.60155 16.12297 9362 ft 182 kts 132°
2026-05-06 09:52 45.59308 16.13645 9854 ft 183 kts 132°
2026-05-06 09:52 45.58442 16.15026 10022 ft 187 kts 132°
2026-05-06 09:52 45.57449 16.16180 10027 ft 183 kts 160°
2026-05-06 09:52 45.56212 16.16451 10040 ft 182 kts 192°
2026-05-06 09:53 45.55051 16.15788 10066 ft 182 kts 209°
2026-05-06 09:53 45.53939 16.14915 10044 ft 182 kts 210°
2026-05-06 09:53 45.52827 16.14051 10042 ft 182 kts 209°
2026-05-06 09:53 45.51713 16.13190 10035 ft 182 kts 209°
2026-05-06 09:54 45.50597 16.12331 10023 ft 182 kts 209°
2026-05-06 09:54 45.49482 16.11473 10017 ft 182 kts 209°
2026-05-06 09:54 45.48366 16.10615 10005 ft 182 kts 209°
2026-05-06 09:54 45.47250 16.09759 9997 ft 182 kts 208°
2026-05-06 09:55 45.46135 16.08901 9980 ft 182 kts 209°
2026-05-06 09:55 45.45020 16.08044 9961 ft 182 kts 209°
2026-05-06 09:55 45.43907 16.07191 9940 ft 182 kts 209°
2026-05-06 09:55 45.42794 16.06339 9913 ft 182 kts 209°
2026-05-06 09:56 45.41694 16.05497 9866 ft 182 kts 209°
2026-05-06 09:56 45.40583 16.04643 9832 ft 182 kts 209°
2026-05-06 09:56 45.39475 16.03793 9838 ft 181 kts 209°
2026-05-06 09:56 45.38363 16.02942 9879 ft 181 kts 209°
2026-05-06 09:57 45.37252 16.02090 9908 ft 182 kts 209°
2026-05-06 09:57 45.36142 16.01243 9939 ft 181 kts 209°
2026-05-06 09:57 45.35005 16.00373 10045 ft 195 kts 209°
2026-05-06 09:57 45.33736 15.99401 10301 ft 219 kts 208°
2026-05-06 09:58 45.32327 15.98319 10649 ft 239 kts 208°
2026-05-06 09:58 45.30838 15.97182 11336 ft 246 kts 208°
2026-05-06 09:58 45.29322 15.96026 12100 ft 249 kts 208°
2026-05-06 09:58 45.27816 15.94879 13075 ft 242 kts 209°
2026-05-06 09:59 45.26338 15.93752 13945 ft 241 kts 209°
2026-05-06 09:59 45.24855 15.92622 14645 ft 243 kts 210°
2026-05-06 09:59 45.23327 15.91558 15325 ft 247 kts 199°
2026-05-06 09:59 45.21607 15.91269 15991 ft 255 kts 177°
2026-05-06 10:00 45.19870 15.91933 16655 ft 262 kts 165°
2026-05-06 10:00 45.18140 15.92795 17335 ft 265 kts 165°
2026-05-06 10:00 45.16394 15.93666 18030 ft 267 kts 166°
2026-05-06 10:00 45.14630 15.94542 18639 ft 270 kts 166°
2026-05-06 10:01 45.12846 15.95420 19228 ft 273 kts 166°
2026-05-06 10:01 45.11039 15.96304 19780 ft 276 kts 166°
2026-05-06 10:01 45.09209 15.97199 20345 ft 279 kts 166°
2026-05-06 10:01 45.07363 15.98102 20913 ft 283 kts 166°
2026-05-06 10:02 45.05490 15.99017 21443 ft 287 kts 166°
2026-05-06 10:02 45.03596 15.99944 21985 ft 290 kts 166°
2026-05-06 10:02 45.01673 16.00885 22527 ft 294 kts 166°
2026-05-06 10:02 44.99726 16.01838 23083 ft 298 kts 166°
2026-05-06 10:03 44.97755 16.02801 23589 ft 302 kts 166°
2026-05-06 10:03 44.95760 16.03777 24047 ft 305 kts 166°
2026-05-06 10:03 44.93744 16.04763 24506 ft 308 kts 166°
2026-05-06 10:03 44.91702 16.05758 24922 ft 312 kts 166°
2026-05-06 10:04 44.89647 16.06756 25393 ft 314 kts 166°
2026-05-06 10:04 44.87572 16.07765 25856 ft 317 kts 166°
2026-05-06 10:04 44.85478 16.08785 26301 ft 319 kts 166°
2026-05-06 10:04 44.83368 16.09806 26743 ft 323 kts 166°
2026-05-06 10:05 44.81234 16.10840 27188 ft 325 kts 166°
2026-05-06 10:05 44.79085 16.11884 27610 ft 328 kts 166°
2026-05-06 10:05 44.76917 16.12937 28038 ft 331 kts 166°
2026-05-06 10:05 44.74732 16.13996 28459 ft 334 kts 166°
2026-05-06 10:06 44.72525 16.15067 28844 ft 337 kts 166°
2026-05-06 10:06 44.70304 16.16141 28973 ft 339 kts 167°
2026-05-06 10:06 44.65838 16.18294 28983 ft 339 kts 166°
2026-05-06 10:07 44.61378 16.20442 28989 ft 338 kts 166°
2026-05-06 10:07 44.56931 16.22581 28984 ft 338 kts 166°
2026-05-06 10:08 44.52485 16.24718 28999 ft 337 kts 166°
2026-05-06 10:08 44.48045 16.26854 28996 ft 337 kts 166°
2026-05-06 10:09 44.43638 16.28961 29000 ft 337 kts 166°
2026-05-06 10:09 44.39202 16.31077 29009 ft 337 kts 166°
2026-05-06 10:10 44.34764 16.33191 29002 ft 337 kts 166°
2026-05-06 10:10 44.30335 16.35299 29008 ft 336 kts 166°
2026-05-06 10:11 44.25907 16.37409 29012 ft 336 kts 167°
2026-05-06 10:11 44.21486 16.39507 29017 ft 336 kts 166°
2026-05-06 10:12 44.17066 16.41601 29018 ft 336 kts 166°
2026-05-06 10:12 44.12637 16.43695 29022 ft 336 kts 166°
2026-05-06 10:13 44.08199 16.45789 29020 ft 337 kts 166°
2026-05-06 10:13 44.03762 16.47880 29026 ft 337 kts 165°
2026-05-06 10:14 43.99458 16.50610 29028 ft 341 kts 159°
2026-05-06 10:14 43.97325 16.52046 28877 ft 343 kts 159°
2026-05-06 10:14 43.95179 16.53487 28488 ft 341 kts 159°
2026-05-06 10:15 43.93049 16.54913 28120 ft 339 kts 159°
2026-05-06 10:15 43.90931 16.56331 27752 ft 337 kts 159°
2026-05-06 10:15 43.88830 16.57742 27379 ft 335 kts 159°
2026-05-06 10:15 43.86760 16.59129 27036 ft 333 kts 159°
2026-05-06 10:16 43.84681 16.60516 26678 ft 331 kts 159°
2026-05-06 10:16 43.82608 16.61899 26322 ft 330 kts 159°
2026-05-06 10:16 43.80549 16.63279 25969 ft 328 kts 159°
2026-05-06 10:16 43.78500 16.64650 25641 ft 326 kts 159°
2026-05-06 10:17 43.76463 16.66008 25291 ft 324 kts 159°
2026-05-06 10:17 43.74434 16.67358 24956 ft 323 kts 159°
2026-05-06 10:17 43.72412 16.68703 24632 ft 321 kts 159°
2026-05-06 10:17 43.70401 16.70042 24300 ft 320 kts 159°
2026-05-06 10:18 43.68431 16.71353 23972 ft 318 kts 159°
2026-05-06 10:18 43.66438 16.72678 23664 ft 317 kts 159°
2026-05-06 10:18 43.64457 16.73992 23290 ft 316 kts 159°
2026-05-06 10:18 43.62481 16.75299 22908 ft 314 kts 159°
2026-05-06 10:19 43.60516 16.76599 22548 ft 313 kts 159°
2026-05-06 10:19 43.58555 16.77895 22177 ft 312 kts 158°
2026-05-06 10:19 43.56603 16.79185 21813 ft 310 kts 159°
2026-05-06 10:19 43.54661 16.80469 21459 ft 309 kts 158°
2026-05-06 10:20 43.52720 16.81751 21085 ft 309 kts 158°
2026-05-06 10:20 43.50784 16.83029 20711 ft 309 kts 158°
2026-05-06 10:20 43.48851 16.84302 20330 ft 309 kts 159°
2026-05-06 10:20 43.46910 16.85579 19970 ft 309 kts 158°
2026-05-06 10:21 43.44977 16.86852 19612 ft 308 kts 158°
2026-05-06 10:21 43.43040 16.88129 19255 ft 308 kts 158°
2026-05-06 10:21 43.41106 16.89406 18901 ft 308 kts 158°
2026-05-06 10:21 43.39175 16.90679 18554 ft 308 kts 158°
2026-05-06 10:22 43.37233 16.91953 18141 ft 310 kts 158°
2026-05-06 10:22 43.35279 16.93233 17676 ft 312 kts 158°
2026-05-06 10:22 43.33316 16.94520 17237 ft 313 kts 158°
2026-05-06 10:22 43.31348 16.95811 16799 ft 314 kts 158°
2026-05-06 10:23 43.29369 16.97106 16367 ft 315 kts 158°
2026-05-06 10:23 43.27389 16.98399 15934 ft 316 kts 158°
2026-05-06 10:23 43.25395 16.99699 15509 ft 317 kts 158°
2026-05-06 10:23 43.23407 17.00995 15096 ft 317 kts 158°
2026-05-06 10:24 43.21410 17.02301 14682 ft 317 kts 158°
2026-05-06 10:24 43.19443 17.03589 14286 ft 317 kts 158°
2026-05-06 10:24 43.17450 17.04891 13866 ft 317 kts 157°
2026-05-06 10:24 43.15463 17.06187 13432 ft 316 kts 158°
2026-05-06 10:25 43.13591 17.07778 12979 ft 321 kts 139°
2026-05-06 10:25 43.12272 17.10250 12542 ft 324 kts 125°
2026-05-06 10:25 43.11058 17.12844 12104 ft 323 kts 127°
2026-05-06 10:25 43.09810 17.15387 11672 ft 321 kts 127°
2026-05-06 10:26 43.08558 17.17891 11260 ft 318 kts 128°
2026-05-06 10:26 43.07307 17.20389 10849 ft 317 kts 127°
2026-05-06 10:26 43.06071 17.22872 10433 ft 315 kts 127°
2026-05-06 10:26 43.04847 17.25345 10037 ft 313 kts 127°
2026-05-06 10:27 43.04041 17.26979 9695 ft 313 kts 127°
2026-05-06 10:27 43.02809 17.29475 9138 ft 312 kts 127°
2026-05-06 10:27 43.01610 17.31906 8607 ft 312 kts 127°
2026-05-06 10:27 43.00403 17.34354 8077 ft 311 kts 127°
2026-05-06 10:28 42.99193 17.36806 7547 ft 310 kts 127°
2026-05-06 10:28 42.97989 17.39245 7035 ft 309 kts 127°
2026-05-06 10:28 42.96792 17.41669 6530 ft 307 kts 127°
2026-05-06 10:28 42.95603 17.44077 5994 ft 305 kts 127°
2026-05-06 10:29 42.94422 17.46464 5458 ft 302 kts 127°
2026-05-06 10:29 42.93257 17.48815 5157 ft 292 kts 127°
2026-05-06 10:29 42.92153 17.51043 5108 ft 275 kts 127°
2026-05-06 10:29 42.91116 17.53137 5057 ft 258 kts 127°
2026-05-06 10:30 42.90048 17.55006 5003 ft 242 kts 138°
2026-05-06 10:30 42.89018 17.56737 4944 ft 229 kts 124°
2026-05-06 10:30 42.88240 17.58550 4900 ft 215 kts 125°
2026-05-06 10:30 42.87493 17.60272 4838 ft 209 kts 126°
2026-05-06 10:31 42.86756 17.61961 4729 ft 206 kts 125°
2026-05-06 10:31 42.86022 17.63642 4621 ft 206 kts 124°
2026-05-06 10:31 42.85294 17.65309 4519 ft 205 kts 124°
2026-05-06 10:31 42.84565 17.66975 4417 ft 204 kts 124°
2026-05-06 10:32 42.83843 17.68633 4312 ft 203 kts 124°
2026-05-06 10:32 42.83122 17.70288 4215 ft 203 kts 124°
2026-05-06 10:32 42.82402 17.71938 4107 ft 203 kts 124°
2026-05-06 10:32 42.81680 17.73590 4004 ft 202 kts 124°
2026-05-06 10:33 42.80962 17.75234 3906 ft 202 kts 124°
2026-05-06 10:33 42.80245 17.76875 3808 ft 201 kts 124°
2026-05-06 10:33 42.79532 17.78507 3712 ft 200 kts 124°
2026-05-06 10:33 42.78821 17.80130 3602 ft 199 kts 124°
2026-05-06 10:34 42.78111 17.81754 3507 ft 199 kts 124°
2026-05-06 10:34 42.77386 17.83359 3404 ft 199 kts 126°
2026-05-06 10:34 42.76628 17.84927 3306 ft 198 kts 127°
2026-05-06 10:34 42.75875 17.86460 3208 ft 197 kts 127°
2026-05-06 10:35 42.75029 17.87906 3105 ft 194 kts 139°
2026-05-06 10:35 42.73946 17.88982 3005 ft 193 kts 149°
2026-05-06 10:35 42.72814 17.89958 2899 ft 192 kts 148°
2026-05-06 10:35 42.71687 17.90945 2799 ft 192 kts 148°
2026-05-06 10:36 42.70565 17.91930 2701 ft 192 kts 147°
2026-05-06 10:36 42.69586 17.93135 2594 ft 188 kts 129°
2026-05-06 10:36 42.68884 17.94596 2496 ft 183 kts 123°
2026-05-06 10:36 42.68260 17.96101 2349 ft 183 kts 122°
2026-05-06 10:37 42.67656 17.97619 2193 ft 182 kts 121°
2026-05-06 10:37 42.67056 17.99139 2042 ft 183 kts 120°
2026-05-06 10:37 42.66460 18.00657 1899 ft 181 kts 120°
2026-05-06 10:37 42.65867 18.02165 1824 ft 181 kts 121°
2026-05-06 10:38 42.65275 18.03669 1813 ft 181 kts 121°
2026-05-06 10:38 42.64682 18.05178 1808 ft 182 kts 120°
2026-05-06 10:38 42.64081 18.06706 1822 ft 184 kts 121°
2026-05-06 10:38 42.63479 18.08234 1814 ft 184 kts 120°
2026-05-06 10:39 42.62875 18.09767 1817 ft 183 kts 121°
2026-05-06 10:39 42.62275 18.11288 1815 ft 183 kts 121°
2026-05-06 10:39 42.61674 18.12812 1820 ft 183 kts 121°
2026-05-06 10:39 42.61073 18.14337 1811 ft 183 kts 121°
2026-05-06 10:40 42.60469 18.15867 1817 ft 185 kts 121°
2026-05-06 10:40 42.59863 18.17401 1724 ft 182 kts 121°
2026-05-06 10:40 42.59283 18.18867 1531 ft 171 kts 121°
2026-05-06 10:40 42.58752 18.20246 1627 ft 154 kts 118°
2026-05-06 10:41 42.58298 18.21478 1320 ft 142 kts 120°
2026-05-06 10:41 42.57868 18.22642 1056 ft 133 kts 123°
2026-05-06 10:41 42.57413 18.23665 805 ft 123 kts 125°
2026-05-06 10:41 42.57018 18.24651 592 ft 112 kts 121°
2026-05-06 10:42 42.56667 18.25486 522 ft 78 kts 119°
2026-05-06 10:42 42.56446 18.26030 517 ft 59 kts 118°
2026-05-06 10:42 42.56266 18.26478 511 ft 45 kts 116°
2026-05-06 10:42 42.56156 18.26612 510 ft 11 kts 214°
2026-05-06 10:43 42.56117 18.26516 511 ft 15 kts 242°
2026-05-06 10:43 42.56139 18.26351 512 ft 22 kts 293°
2026-05-06 10:43 42.56174 18.26180 513 ft 14 kts 245°
2026-05-06 10:44 42.56163 18.26165 513 ft 0 kts 211°